STARLINK-11189, 60188

Orbit data source: Space-Track

STARLINK-11189, 60188 is a payload satellite owned by SpaceX/Seattle (US) in LEO that was launched on Wed, 03 Jul 2024 UTC via an FALCON 9 launch vehicle from the Air Force Eastern Test Range (AFETR). Payload-class satellites include a variety of spacecraft equipped with specific instruments for various scientific and technological missions. These include communications satellites like Starlink; space stations such as the ISS; scientific satellites like the Hubble; Earth observation satellites from companies like Planet Labs, Umbra, and HawkEye 360; GPS; miniature CubeSats for education and research; and military/defense satellites.

Loading next visibility...
Identifier
60188, 2024-124F
Orbit
LEO
Last TLE update
4 hours ago
Origin
Manufacturer
SpaceX/Seattle
Mission
Operational Commercial Communications
Bus & Motor
STARLINK V2M, Unknown motor
Mass
730 kg wet, ~700 kg dry
Launch date (UTC)
2024-07-03 (1 year ago)
Launch vehicle
FALCON 9
Launch site
Air Force Eastern Test Range (AFETR)
Object type
Payload
Rocket body
Debris
Shape & HBR
Box + 2 Pan, 29 m
Radar Cross Section
36.964 m², Large (>1 m²)

Expand to show TLE details & history

TLE from 4 hours ago
0 STARLINK-11189
1 60188U 24124F   25186.61838307 -.00002880  00000-0 -18911-4 0  9998
2 60188  53.1588 299.6025 0001125 340.2864  19.8110 15.69722503 57725
Epoch: 2025-07-05T14:50Z
TLE epoch observation values (Epoch: 2025-07-05T14:50:28.297Z)
Latitude
-0.00003°
Longitude
153.13074°
Altitude
359.893 km
Speed
7.695 km/s
True Right ascension
19h 58m 24s
True Declination
0° 00' 00"
Sunlit
Object was in full shadow at epoch
Visualization orbit readout
Latitude
2.09963°
Longitude
-29.21687°
Altitude
361.087 km
Speed
7.694 km/s
Apparent Right ascension
10h 16m 08s
Apparent Declination
-55° 40' 11"
Sunlit
Object is in daylight
Visualization observer readout
Local Sidereal Time
06:34:32
Azimuth
151.04° SSE
Elevation
-16.516°
Doppler factor
1
Orbital elements
Apogee altitude
360.71 km
Perigee altitude
359.194 km
Semi-major axis
6,738.089 km
Eccentricity
0.00011
Inclination
53.1588°
RAAN
299.6025°
Arg. of periapsis
340.2864°
True anomaly
Unknown
Mean anomaly
19.811°
Eccentric anomaly
Unknown
Mean motion
3.92408 °/min
Orbital period
91.74 mins
BSTAR
-0.000018911
Loading maneuver chart data...
Loading SW <> Apogee altitude chart data...
Loading historical data...
Loading historical data...
Loading historical data...
Loading historical data...
Loading historical data...
Loading historical data...
Loading historical data...

STARLINK-11189 Visibility forecast

Observer location: undefined°, undefined°

Span
Click to sort rows by Start time (UTC) header in descending order
Start Az.
Max El. time (UTC)
Max El. Az.
Max El.
End time (UTC)
End Az.
4 mins2025-07-06 10:55:57.903Z274.627° WNW2025-07-06 10:56:57.903Z305.449° NW27.755°2025-07-06 10:59:57.903Z32.777° NE
|